Home > Weather > Feldkirch > Past weeks

Flag for Austria Past Weather in Feldkirch, Vorarlberg, Austria — Yesterday and Last 2 Weeks

Now
63 °F

Mild.


Feels Like: 63 °F
Forecast: 61 / 65 °F
Wind: No wind

Location: Feldkirch

Current Time: Jun 25, 2016 at 11:25:07 PM

Latest Report: Jun 25, 2016 at 10:00 PM


Visibility: N/A

Pressure: 30.03 "Hg

Humidity: 92%

Dew Point: 61 °F

Location of FeldkirchLocation

Past Weather in Feldkirch — Graph

°F

Feldkirch Temperature Yesterday

Maximum temperature yesterday: 87 °F (at 1:00 PM)
Minimum temperature yesterday: 66 °F (at 6:00 AM)
Average temperature yesterday: 77 °F

High & Low Weather Summary for the Past Weeks

 TemperatureHumidityPressure
High88 °F (Jun 23, 6:00 PM)98% (Jun 14, 6:00 AM)30.27 "Hg (Jun 14, 6:00 AM)
Low46 °F (Jun 17, 6:00 AM)41% (Jun 24, 3:00 PM)29.55 "Hg (Jun 14, 2:00 PM)
Average63 °F79%29.93 "Hg
* Reported Jun 10 10:00 PM — Jun 25 10:00 PM, Feldkirch, Weather by CustomWeather, © 2016

Note: Actual official high and low records may vary slightly from our data, if they occured in-between our weather recording intervals... More about our weather records

Advertising

Feldkirch Weather History for the Previous 24 Hours

Scroll right to see more
 ConditionsComfort  
Time TempWeatherWind HumidityBarometerVisibility
10:00 PM
Sat, Jun 25
63 °FMild.No wind92%30.03 "HgN/A
9:00 PM63 °FMild.No wind93%30.01 "HgN/A
8:00 PM63 °FMild.1 mph89%30.01 "HgN/A
7:00 PM63 °FMild.1 mph91%29.99 "HgN/A
6:00 PM66 °FFog.5 mph73%29.96 "HgN/A
5:00 PM74 °FMild.2 mph69%29.89 "HgN/A
4:00 PM77 °FWarm.1 mph53%29.86 "HgN/A
3:00 PM75 °FMild.2 mph58%29.87 "HgN/A
2:00 PM77 °FWarm.3 mph61%29.86 "HgN/A
1:00 PM80 °FWarm.2 mph57%29.85 "HgN/A
12:00 PM78 °FWarm.1 mph55%29.88 "HgN/A
11:00 AM73 °FScattered clouds.2 mph73%29.91 "Hg12 mi
10:00 AM72 °FMild.1 mph71%29.93 "HgN/A
9:00 AM69 °FMild.2 mph76%29.94 "HgN/A
8:00 AM67 °FMild.1 mph83%29.96 "HgN/A
7:00 AM65 °FPartly sunny.No wind85%29.96 "Hg9 mi
6:00 AM63 °FMild.1 mph89%29.96 "HgN/A
5:00 AM64 °FMild.1 mph87%29.93 "HgN/A
4:00 AM65 °FMild.1 mph85%29.92 "HgN/A
3:00 AM66 °FMild.1 mph85%29.94 "HgN/A
2:00 AM67 °FMild.1 mph83%29.97 "HgN/A
1:00 AM68 °FMild.No wind83%29.99 "HgN/A
12:00 AM69 °FMild.1 mph78%29.98 "HgN/A
11:00 PM
Fri, Jun 24
72 °FMild.3 mph67%29.94 "HgN/A
Weather by CustomWeather, © 2016

See weather overviewHow to use our weather pages